Location: Unspecified
(0.0000°N, 0.0000°E)
Time: 22:00:12
(UTC+02:00)

Vanguard 1 - Visible Passes

Search period start: 20 September 2014 00:00
Search period end: 30 September 2014 00:00
Orbit: 650 x 3838 km, 34.3° (Epoch: 07 September)

Date Brightness Start Highest point End Pass type
(mag) Time Alt. Az. Time Alt. Az. Time Alt. Az.
20 Sep 14.2 02:01:49 10° NW 02:02:41 12° NW 02:02:41 12° NW visible
20 Sep 12.3 04:51:32 24° SSE 04:51:32 24° SSE 04:53:58 10° SE visible
20 Sep 14.0 21:27:14 10° NW 21:41:11 20° N 21:56:00 10° NE visible
20 Sep 13.6 23:56:48 10° NNW 00:09:42 27° N 00:09:42 27° N visible
21 Sep 12.1 05:12:01 25° S 05:12:01 25° S 05:14:58 10° SSE visible
21 Sep 13.8 21:51:00 10° NW 22:05:54 20° N 22:16:44 15° NE visible
22 Sep 13.7 00:18:54 10° NW 00:29:26 27° NNW 00:29:26 27° NNW visible
22 Sep 12.2 05:32:26 23° S 05:32:26 23° S 05:35:40 10° SSE visible
22 Sep 13.7 22:14:05 10° NNW 22:30:25 23° NNE 22:36:30 21° NNE visible
23 Sep 13.7 00:40:52 10° NW 00:49:13 25° NNW 00:49:13 25° NNW visible
23 Sep 12.4 05:52:47 17° SSW 05:52:47 17° SSW 05:55:56 10° S visible
23 Sep 14.0 20:08:06 10° NW 20:19:44 18° N 20:33:40 10° NE visible
23 Sep 13.5 22:36:35 10° NNW 22:54:36 27° NNE 22:56:18 27° NNE visible
24 Sep 13.8 01:02:50 10° NW 01:09:01 22° NW 01:09:01 22° NW visible
24 Sep 12.6 06:13:05 12° SSW 06:13:05 12° SSW 06:14:57 10° SSW visible
24 Sep 14.0 20:31:53 10° NNW 20:44:18 19° N 20:58:32 10° NE visible
24 Sep 13.4 22:58:43 10° NNW 23:16:09 32° NNE 23:16:09 32° NNE visible
25 Sep 14.0 01:24:53 10° NW 01:28:52 18° NW 01:28:52 18° NW visible
25 Sep 13.0 04:20:35 13° SSE 04:20:35 13° SSE 04:21:12 10° SSE visible
25 Sep 13.9 20:55:02 10° NNW 21:08:51 20° NNE 21:23:20 11° NE visible
25 Sep 13.4 23:20:37 10° NW 23:36:03 36° N 23:36:03 36° N visible
26 Sep 14.1 01:47:07 10° NW 01:48:47 13° NW 01:48:47 13° NW visible
26 Sep 12.9 04:40:48 14° SSE 04:40:48 14° SSE 04:42:00 10° SSE visible
26 Sep 13.7 21:17:33 10° NNW 21:33:10 23° NNE 21:43:17 18° NE visible
26 Sep 13.4 23:42:28 10° NW 23:56:01 37° NNW 23:56:01 37° NNW visible
27 Sep 12.8 05:00:57 14° S 05:00:57 14° S 05:02:28 10° S visible
27 Sep 13.5 21:39:38 10° NNW 21:57:09 28° NNE 22:03:18 25° NE visible
28 Sep 13.4 00:04:19 10° NW 00:16:02 36° NNW 00:16:02 36° NNW visible
28 Sep 12.9 05:21:04 12° SSW 05:21:04 12° SSW 05:22:20 10° S visible
28 Sep 13.3 22:01:26 10° NNW 22:20:45 34° NNE 22:23:23 33° NE visible
29 Sep 13.6 00:26:18 10° NW 00:36:07 33° NW 00:36:07 33° NW visible
29 Sep 13.8 19:59:51 10° NNW 20:11:57 19° NNE 20:26:20 10° NE visible
29 Sep 13.1 22:23:08 10° NW 22:43:33 42° NNE 22:43:33 42° NNE visible
